Weather reports worldwide

Advertisment
Figari, France (7780): temperature & dewpoint: 16.03.2019 18:00:00 - 22.03.2019 18:00:00 (CET)Figari, France (7780): temperature 5cm: 16.03.2019 18:00:00 - 22.03.2019 18:00:00 (CET)Figari, France (7780): wind speed & gusts: 16.03.2019 18:00:00 - 22.03.2019 18:00:00 (CET)Figari, France (7780): wind direction: 16.03.2019 18:00:00 - 22.03.2019 18:00:00 (CET)Figari, France (7780): reduced air pressure: 16.03.2019 18:00:00 - 22.03.2019 18:00:00 (CET)Figari, France (7780): visibility: 16.03.2019 18:00:00 - 22.03.2019 18:00:00 (CET)Figari, France (7780): precipitation: 16.03.2019 18:00:00 - 22.03.2019 18:00:00 (CET)
Date & Time tt [°C] td [°C] tt 5cm [°C] ff [km/h] ff [kn] fx [km/h] fx [kn] dd ppp [hPa] vv [km] rr [mm]
22.03.2019 18:00:00 16,1 3,2 13,9 13 7 35 19 NE 1024,7 20 0,0
22.03.2019 17:00:00 18,1 3,2 17,2 19 10 39 21 NE 1024,3 20 0,0
22.03.2019 16:00:00 18,7 4,1 18,6 21 12 44 24 ENE 1024,4 20 0,0
22.03.2019 15:00:00 18,7 3,3 20,5 27 14 45 25 ENE 1024,9 19 0,0
22.03.2019 14:00:00 19,2 4,5 23,1 22 12 43 23 E 1025,2 15 0,0
22.03.2019 13:00:00 19,1 4,8 22,6 23 13 39 21 ENE 1025,9 20 0,0
22.03.2019 12:00:00 18,3 3,7 22,7 25 14 44 24 ENE 1026,3 19 0,0
22.03.2019 11:00:00 19,0 4,0 22,4 18 10 37 20 ENE 1026,3 16 0,0
22.03.2019 10:00:00 18,7 4,5 17,3 12 7 26 14 NE 1025,9 5 0,0
22.03.2019 09:00:00 16,3 4,0 13,7 17 9 29 16 NE 1025,9 13 0,0
22.03.2019 08:00:00 13,9 3,1 9,4 16 9 32 18 ENE 1025,6 13 0,0
22.03.2019 07:00:00 11,2 3,0 7,9 18 10 31 17 ENE 1025,5 20 0,0
22.03.2019 06:00:00 11,1 2,6 8,1 16 9 29 16 ENE 1025,0 20 0,0
22.03.2019 05:00:00 10,4 2,5 7,4 17 9 24 13 NE 1024,9 20 0,0
22.03.2019 04:00:00 10,8 2,4 8,9 15 8 35 19 NE 1024,9 20 0,0
22.03.2019 03:00:00 11,9 2,6 10,3 21 11 38 20 ENE 1025,0 20 0,0
22.03.2019 02:00:00 13,0 2,5 10,9 21 12 34 18 ENE 1024,8 20 0,0
22.03.2019 01:00:00 13,3 3,6 10,8 16 9 34 19 ENE 1025,0 20 0,0
22.03.2019 00:00:00 13,2 3,0 7,5 18 10 29 16 ENE 1024,7 20 0,0
21.03.2019 23:00:00 11,4 2,9 7,6 12 7 29 16 NE 1024,8 20 0,0
21.03.2019 22:00:00 12,9 3,0 4,6 14 8 24 13 NE 1024,6 20 0,0
21.03.2019 21:00:00 12,4 2,8 9,4 12 6 27 14 ENE 1024,3 20 0,0
21.03.2019 20:00:00 13,7 2,3 11,3 18 10 36 19 ENE 1024,3 20 0,0
21.03.2019 19:00:00 13,3 2,8 11,5 21 11 36 19 NE 1024,0 20 0,0
21.03.2019 18:00:00 15,0 2,8 13,6 22 12 46 25 ENE 1023,6 20 0,0
21.03.2019 17:00:00 16,1 3,5 15,8 26 14 48 26 ENE 1023,4 20 0,0
21.03.2019 16:00:00 16,9 4,2 16,7 26 14 49 26 ENE 1023,6 7 0,0
21.03.2019 15:00:00 17,6 5,2 19,8 25 14 47 26 NE 1023,7 12 0,0
21.03.2019 14:00:00 17,0 5,3 20,3 27 15 50 27 NE 1024,2 10 0,0
21.03.2019 13:00:00 16,7 5,3 20,1 29 16 55 30 ENE 1024,8 18 0,0
21.03.2019 12:00:00 16,9 4,9 20,6 28 15 55 30 ENE 1024,7 19 0,0
21.03.2019 11:00:00 16,5 4,2 16,8 29 16 55 30 ENE 1024,4 15 0,0
21.03.2019 10:00:00 15,3 0,7 14,4 26 14 49 27 ENE 1024,4 20 0,0
21.03.2019 09:00:00 13,9 -0,6 11,6 27 14 46 25 NE 1024,6 20 0,0
21.03.2019 08:00:00 11,3 -0,8 7,4 23 12 37 20 NE 1024,3 20 0,0
21.03.2019 07:00:00 9,1 -1,6 6,2 21 11 45 25 NE 1024,0 20 0,0
21.03.2019 06:00:00 8,9 -1,8 6,0 26 14 40 22 NE 1023,7 20 0,0
21.03.2019 05:00:00 8,0 -1,0 6,4 22 12 36 19 NE 1023,7 20 0,0
21.03.2019 04:00:00 8,3 -0,5 6,1 20 11 34 18 NE 1023,9 20 0,0
21.03.2019 03:00:00 8,1 0,1 6,0 14 8 28 15 ENE 1024,4 20 0,0
21.03.2019 02:00:00 9,2 0,6 7,1 16 9 33 18 NE 1024,5 20 0,0
21.03.2019 01:00:00 9,8 0,7 8,3 22 12 41 22 NE 1024,4 20 0,0
21.03.2019 00:00:00 11,3 0,4 9,4 24 13 42 23 ENE 1024,4 20 0,0
20.03.2019 23:00:00 11,7 1,0 10,0 25 13 50 27 ENE 1024,7 20 0,0
20.03.2019 22:00:00 11,8 0,8 8,4 23 13 41 22 ENE 1025,0 20 0,0
20.03.2019 21:00:00 11,3 0,7 4,1 16 9 34 18 ENE 1024,7 20 0,0
20.03.2019 20:00:00 9,0 1,4 3,9 10 5 21 11 ENE 1024,5 20 0,0
20.03.2019 19:00:00 11,8 1,1 8,5 11 6 29 16 ENE 1024,2 20 0,0
20.03.2019 18:00:00 13,9 1,5 12,2 16 9 48 26 ENE 1023,8 20 0,0
20.03.2019 17:00:00 14,6 1,5 14,1 23 12 55 30 NE 1023,4 20 0,0
20.03.2019 16:00:00 15,5 2,3 13,6 30 16 55 30 ENE 1023,3 18 0,0
20.03.2019 15:00:00 14,5 2,7 14,6 28 15 59 32 ENE 1023,2 18 0,0
20.03.2019 14:00:00 15,5 3,9 18,8 29 16 56 30 ENE 1023,2 19 0,0
20.03.2019 13:00:00 15,4 4,4 19,0 28 15 54 29 ENE 1023,4 20 0,0
20.03.2019 12:00:00 15,4 3,5 18,8 34 18 63 34 ENE 1023,4 20 0,0
20.03.2019 11:00:00 14,5 2,1 17,2 29 16 53 28 ENE 1023,2 20 0,0
20.03.2019 10:00:00 13,7 2,3 13,0 26 14 49 26 ENE 1023,0 19 0,0
20.03.2019 09:00:00 12,3 2,2 8,4 11 6 21 11 NNE 1023,5 20 0,0
20.03.2019 08:00:00 9,1 1,3 0,9 11 6 18 10 ENE 1022,9 20 0,0
20.03.2019 07:00:00 3,4 -0,1 0,8 8 4 21 12 NNE 1022,8 20 0,0
20.03.2019 06:00:00 4,3 0,1 -0,8 13 7 21 12 ENE 1022,3 20 0,0
20.03.2019 05:00:00 2,2 -0,2 -0,5 7 4 14 8 NNE 1022,1 20 0,0
20.03.2019 04:00:00 4,9 0,7 -1,1 10 5 19 11 ENE 1022,0 20 0,0
20.03.2019 03:00:00 2,8 0,4 -1,1 6 4 9 5 NNE 1022,0 20 0,0
20.03.2019 02:00:00 4,6 1,1 -0,1 6 4 21 12 N 1022,3 20 0,0
20.03.2019 01:00:00 3,9 0,4 0,0 9 5 16 9 NNE 1022,2 20 0,0
20.03.2019 00:00:00 5,8 1,3 1,4 7 4 27 15 N 1022,0 20 0,0
19.03.2019 23:00:00 7,5 1,3 0,2 14 7 24 13 ENE 1021,9 20 0,0
19.03.2019 22:00:00 5,3 1,9 2,1 5 3 16 8 NNE 1021,9 20 0,0
19.03.2019 21:00:00 6,5 3,1 3,7 11 6 18 10 ENE 1021,4 20 0,0
19.03.2019 20:00:00 8,3 4,3 6,0 14 8 27 15 NE 1020,9 20 0,0
19.03.2019 19:00:00 9,3 5,8 7,8 14 7 25 14 NE 1020,5 20 0,0
19.03.2019 18:00:00 10,1 5,5 8,3 9 5 30 16 ENE 1019,9 20 0,0
19.03.2019 17:00:00 10,1 5,9 8,7 18 10 32 18 ENE 1019,4 20 0,0
19.03.2019 16:00:00 10,5 6,4 9,4 17 9 34 18 NE 1019,3 20 0,0
19.03.2019 15:00:00 10,9 6,6 10,2 15 8 26 14 ENE 1019,1 20 0,0
19.03.2019 14:00:00 11,6 6,9 10,1 5 3 22 12 E 1019,3 20 0,6
19.03.2019 13:00:00 11,3 7,0 10,3 12 6 30 16 E 1019,2 14 1,2
19.03.2019 12:00:00 12,9 4,8 12,1 11 6 22 12 E 1018,9 20 0,0
19.03.2019 11:00:00 13,9 2,5 14,1 8 5 23 13 W 1018,5 16 0,0
19.03.2019 10:00:00 15,4 5,0 14,5 8 5 18 10 SSW 1018,4 20 0,0
19.03.2019 09:00:00 13,6 5,2 7,0 4 2 9 5 SSW 1018,1 18 0,0
19.03.2019 08:00:00 6,8 3,4 -2,2 4 2 9 5 NE 1017,8 18 0,0
19.03.2019 07:00:00 -0,1 -1,5 -2,8 2 1 13 7 NNE 1017,4 20 0,0
19.03.2019 06:00:00 -0,1 -1,5 -3,0 9 5 11 6 NE 1017,0 20 0,0
19.03.2019 05:00:00 -0,4 -2,1 -2,9 6 3 10 6 NNE 1016,8 20 0,0
19.03.2019 04:00:00 -0,3 -1,9 -2,5 4 2 10 5 NE 1016,4 20 0,0
19.03.2019 03:00:00 0,1 -1,5 -2,8 6 3 10 5 NNE 1016,4 20 0,0
19.03.2019 02:00:00 1,2 -0,9 -2,2 5 3 10 6 NNE 1016,5 20 0,0
19.03.2019 01:00:00 3,5 1,0 -2,0 7 4 10 5 NE 1016,7 20 0,0
19.03.2019 00:00:00 4,3 1,8 1,5 8 5 13 7 ENE 1016,6 20 0,0
18.03.2019 23:00:00 4,5 2,0 0,5 7 4 9 5 NE 1016,6 20 0,0
18.03.2019 22:00:00 5,6 2,6 0,6 3 2 9 5 SSE 1016,3 20 0,0
18.03.2019 21:00:00 6,1 2,4 1,1 4 2 12 6 NNE 1015,6 20 0,0
18.03.2019 20:00:00 8,6 3,2 5,7 3 2 11 6 S 1015,3 20 0,0
18.03.2019 19:00:00 10,6 3,8 8,6 9 5 27 14 WSW 1015,4 20 0,0
18.03.2019 18:00:00 11,8 3,3 10,7 22 12 44 24 WSW 1015,1 20 0,0
18.03.2019 17:00:00 13,0 3,1 13,3 27 15 50 27 WSW 1014,8 17 0,0
18.03.2019 16:00:00 13,3 2,8 13,9 30 16 55 30 WSW 1014,5 16 0,0
18.03.2019 15:00:00 13,9 2,5 15,7 34 18 59 32 WSW 1014,2 12 0,0
18.03.2019 14:00:00 15,4 1,9 20,6 33 18 60 33 W 1014,3 19 0,0
18.03.2019 13:00:00 15,9 1,6 21,6 38 21 59 32 W 1014,5 20 0,0
18.03.2019 12:00:00 15,7 1,8 19,5 34 18 56 31 W 1015,0 19 0,0
18.03.2019 11:00:00 15,4 2,2 16,3 30 16 58 31 W 1014,6 13 0,0
18.03.2019 10:00:00 14,2 2,1 13,9 23 13 58 31 W 1014,2 11 0,0
18.03.2019 09:00:00 13,6 2,5 13,0 27 15 72 39 W 1013,7 18 0,0
18.03.2019 08:00:00 12,7 3,9 10,5 28 15 57 31 W 1013,4 20 0,0
18.03.2019 07:00:00 11,7 4,4 10,1 27 15 48 26 WSW 1013,1 20 0,0
18.03.2019 06:00:00 11,9 6,6 10,3 24 13 43 23 WSW 1012,8 20 0,0
18.03.2019 05:00:00 12,2 7,9 10,4 22 12 41 22 WSW 1012,7 20 0,0
18.03.2019 04:00:00 11,9 8,9 10,7 22 12 44 24 SW 1012,7 20 0,0
18.03.2019 03:00:00 12,2 8,8 11,0 31 17 53 28 SW 1012,8 20 0,0
18.03.2019 02:00:00 12,9 8,2 11,5 30 16 53 28 SW 1012,5 20 0,0
18.03.2019 01:00:00 13,5 8,3 11,7 31 17 55 30 SW 1012,5 20 0,0
18.03.2019 00:00:00 13,0 7,4 11,0 27 14 42 23 WSW 1013,2 20 0,0
17.03.2019 23:00:00 13,2 6,5 9,6 25 13 37 20 SW 1013,7 20 0,0
17.03.2019 22:00:00 12,9 2,7 7,9 15 8 26 14 SW 1013,8 20 0,0
17.03.2019 21:00:00 12,0 1,3 2,6 18 10 26 14 WSW 1013,7 20 0,0
17.03.2019 20:00:00 9,5 0,9 4,9 8 4 20 11 SW 1013,9 20 0,0
17.03.2019 19:00:00 12,7 4,1 10,1 14 8 29 15 S 1013,9 20 0,0
17.03.2019 18:00:00 15,0 7,8 13,5 20 11 31 17 SSW 1013,8 20 0,0
17.03.2019 17:00:00 17,6 6,8 17,3 20 11 30 16 SSW 1014,1 20 0,0
17.03.2019 16:00:00 19,3 5,7 18,8 19 10 29 16 SSW 1014,4 20 0,0
17.03.2019 15:00:00 19,6 4,1 24,9 17 9 29 16 SSW 1015,1 20 0,0
17.03.2019 14:00:00 19,4 3,1 24,9 18 10 30 16 SSW 1015,8 20 0,0
17.03.2019 13:00:00 18,6 4,7 24,5 18 10 27 15 SW 1016,6 19 0,0
17.03.2019 12:00:00 18,7 8,6 22,4 12 6 22 12 SW 1017,1 20 0,0
17.03.2019 11:00:00 16,8 9,0 21,0 9 5 19 10 SSW 1017,7 20 0,0
17.03.2019 10:00:00 15,9 8,6 16,1 5 3 15 8 SSW 1018,3 20 0,0
17.03.2019 09:00:00 12,6 8,3 10,9 3 2 6 4 W 1018,5 20 0,0
17.03.2019 08:00:00 9,0 8,2 1,5 2 1 10 6 S 1018,1 20 0,0
17.03.2019 07:00:00 3,4 2,7 -1,4 5 3 11 6 ENE 1018,0 20 0,0
17.03.2019 06:00:00 2,5 1,5 -1,3 5 3 8 5 ENE 1017,9 20 0,0
17.03.2019 05:00:00 4,4 3,2 0,5 2 1 9 5 N 1017,9 20 0,0
17.03.2019 04:00:00 5,2 4,0 3,6 5 3 12 7 NE 1018,0 20 0,0
17.03.2019 03:00:00 5,0 4,0 1,7 8 5 14 7 NE 1018,3 20 0,0
17.03.2019 02:00:00 5,5 4,0 3,2 8 4 17 9 NNE 1018,7 20 0,0
17.03.2019 01:00:00 5,9 4,2 2,9 15 8 33 18 WSW 1018,8 20 0,0
17.03.2019 00:00:00 6,8 5,1 3,1 4 2 35 19 N 1019,2 20 0,0
16.03.2019 23:00:00 7,5 5,5 4,2 2 1 22 12 NNE 1019,4 20 0,0
16.03.2019 22:00:00 10,4 7,3 7,2 9 5 39 21 W 1019,3 20 0,0
16.03.2019 21:00:00 12,4 8,7 11,1 24 13 44 24 WSW 1019,0 20 0,0
16.03.2019 20:00:00 12,7 8,6 11,3 26 14 48 26 SW 1018,8 20 0,0
16.03.2019 19:00:00 12,8 8,7 11,5 28 15 44 24 WSW 1018,4 20 0,0
16.03.2019 18:00:00 13,5 9,7 12,7 26 14 47 26 WSW 1018,5 20 0,0

tt = temperature
td = dewpoint
tt 5cm = temperature 5cm
ff = wind speed
fx = gusts
dd = wind direction
ppp = reduced air pressure
vv = visibility
rr = precipitation

Next stations